Content
SEND FEEDBACK

Daily
Averages
Monthly
Summary
United States of America

MAURICEVILLE, TEXAS


Home > North America > United States > Texas
Elevation: 20 feet     Latitude: 30 14N     Longitude: 093 44W

WEATHER
 
SELECT A DAY
Number of Records: 103,334;   Date Range: 8/25/05 - 4/23/14
 
SHARE

PRINT THIS DATA

[ ← Previous Day ]
WEATHER ALMANAC - NOVEMBER 13, 2013
[ Next Day → ]
[ °C ]   °F
Weather ElementAverageHighLow
Temperature43.1 °F56.5 °F (2:15 pm)33.1 °F (6:55 am)
Dewpoint28 °F33.6 °F (9:55 pm)20.5 °F (12:35 pm)
Humidity59.1 %88 % (11:55 pm)27 % (2:15 pm)
Barometer30.53 in30.62 in (7:55 am)30.44 in (10:15 pm)
Wind Speed6.5 mph13.8 mph (12:35 am)
Wind Gust20.7 mph (12:35 am)
Weather ElementAverage
Visibility10 mi
Wind DirectionSSE (164.6 °)

Weather ElementTotal
Precipitation---
Heating Degree Days20.2 (Base 65)
Averaged from 71 records on November 13, 2013
WEATHER CONDITIONS BREAKOUT
WIND DIRECTION BREAKOUT
WEATHER BY HOUR - NOVEMBER 13, 2013
[ °C ]   °F
Local TimeTemperatureDewpointHumidityBarometerVisibilityWind DirectionWind SpeedGust SpeedPrecipitationEventsConditions
12:35 AM41.0 °F30.7 °F67 %30.58 in10.0 miNorth (10°)13.8 mph20.7 mphClear
12:55 AM40.3 °F29.7 °F66 %30.58 in10.0 miNNE (20°)11.5 mph20.7 mphClear
1:15 AM39.6 °F29.8 °F68 %30.57 in10.0 miNorth (360°)8.1 mphClear
1:35 AM39.2 °F29.3 °F68 %30.57 in10.0 miNorth (10°)9.2 mphClear
1:55 AM38.5 °F29.1 °F69 %30.58 in10.0 miNorth (10°)8.1 mphClear
2:15 AM38.3 °F29.1 °F70 %30.57 in10.0 miNorth (10°)9.2 mphClear
2:35 AM37.9 °F28.8 °F70 %30.58 in10.0 miNorth (10°)6.9 mph16.1 mphClear
2:55 AM37.4 °F29.1 °F72 %30.58 in10.0 miNorth (10°)6.9 mphClear
3:15 AM36.9 °F29.1 °F74 %30.58 in10.0 miNorth (360°)6.9 mphClear
3:35 AM36.5 °F29.1 °F75 %30.58 in10.0 miNorth (10°)8.1 mphClear
3:55 AM36.0 °F28.8 °F75 %30.58 in10.0 miNorth (10°)6.9 mphClear
4:15 AM35.6 °F28.6 °F76 %30.59 in10.0 miNorth (360°)6.9 mphClear
4:35 AM35.4 °F28.2 °F75 %30.59 in10.0 miNorth (360°)6.9 mphClear
4:55 AM35.1 °F28.0 °F76 %30.60 in10.0 miNorth (360°)6.9 mphClear
5:15 AM34.7 °F28.0 °F77 %30.60 in10.0 miNorth (360°)6.9 mphClear
5:35 AM34.3 °F27.9 °F77 %30.60 in10.0 miNorth (360°)8.1 mphClear
5:55 AM34.0 °F27.7 °F78 %30.60 in10.0 miNorth (10°)9.2 mphClear
6:15 AM33.6 °F27.9 °F79 %30.60 in10.0 miNorth (10°)9.2 mphClear
6:35 AM33.3 °F27.5 °F79 %30.60 in10.0 miNorth (360°)5.8 mphClear
6:55 AM33.1 °F27.5 °F80 %30.61 in10.0 miNorth (360°)5.8 mphClear
7:15 AM33.8 °F27.5 °F78 %30.61 in10.0 miNorth (360°)6.9 mphClear
7:35 AM34.7 °F27.9 °F76 %30.61 in10.0 miNorth (360°)8.1 mphClear
7:55 AM36.0 °F27.7 °F72 %30.62 in10.0 miNorth (10°)9.2 mphClear
8:15 AM36.9 °F27.3 °F68 %30.62 in10.0 miNNE (20°)13.8 mphClear
8:35 AM37.9 °F26.8 °F64 %30.61 in10.0 miNorth (10°)12.7 mph16.1 mphClear
8:55 AM39.2 °F26.4 °F60 %30.61 in10.0 miNNE (30°)11.5 mph16.1 mphClear
9:15 AM40.1 °F25.7 °F56 %30.61 in10.0 miNNE (30°)10.4 mphClear
9:35 AM41.5 °F25.9 °F54 %30.61 in10.0 miNNE (20°)12.7 mphClear
9:55 AM42.6 °F25.0 °F50 %30.60 in10.0 miNNE (30°)10.4 mphClear
10:15 AM44.2 °F25.3 °F47 %30.60 in10.0 miNorth (360°)9.2 mphClear
10:35 AM45.7 °F23.9 °F42 %30.60 in10.0 miNNE (20°)11.5 mph17.3 mphClear
10:55 AM47.1 °F23.5 °F40 %30.59 in10.0 miNorth (360°)12.7 mph16.1 mphClear
11:15 AM48.4 °F23.0 °F37 %30.58 in10.0 miNorth (350°)8.1 mphClear
11:35 AM49.6 °F22.6 °F35 %30.57 in10.0 miNorth (350°)11.5 mph16.1 mphClear
11:55 AM51.1 °F21.6 °F31 %30.55 in10.0 miNorth (10°)11.5 mph16.1 mphClear
12:15 PM52.5 °F21.7 °F30 %30.53 in10.0 miNorth (350°)9.2 mph17.3 mphClear
12:35 PM52.7 °F20.5 °F28 %30.51 in10.0 miNorth (10°)9.2 mphClear
12:55 PM53.8 °F23.0 °F30 %30.49 in10.0 miNorth (360°)9.2 mphClear
1:15 PM54.7 °F22.3 °F28 %30.49 in10.0 miNNW (340°)10.4 mph16.1 mphClear
1:35 PM55.4 °F22.3 °F28 %30.48 in10.0 miNorth (10°)8.1 mph16.1 mphClear
1:55 PM55.6 °F23.2 °F29 %30.48 in10.0 miNorth (350°)6.9 mphClear
2:15 PM56.5 °F22.3 °F27 %30.47 in10.0 miNorth (360°)6.9 mphClear
2:35 PM55.6 °F22.5 °F28 %30.47 in10.0 miNorth (10°)5.8 mphClear
2:55 PM55.9 °F24.4 °F30 %30.46 in10.0 miNNE (20°)9.2 mphClear
3:15 PM55.8 °F23.7 °F29 %30.46 in10.0 miNorth (10°)8.1 mphClear
3:35 PM55.2 °F23.9 °F30 %30.46 in10.0 miNorth (10°)6.9 mphClear
3:55 PM55.6 °F25.0 °F31 %30.46 in10.0 miNorth (350°)6.9 mphClear
4:15 PM54.5 °F26.1 °F33 %30.46 in10.0 miNorth (360°)4.6 mphClear
4:35 PM53.2 °F26.1 °F35 %30.45 in10.0 miNorth (10°)4.6 mphClear
4:55 PM52.0 °F27.7 °F39 %30.45 in10.0 miNorth (350°)3.5 mphClear
5:15 PM50.2 °F29.3 °F45 %30.46 in10.0 miNorth (360°)3.5 mphClear
5:35 PM48.9 °F30.4 °F49 %30.46 in10.0 miNorth (350°)3.5 mphClear
5:55 PM47.3 °F31.1 °F53 %30.46 in10.0 miNorth (350°)3.5 mphClear
6:15 PM46.2 °F31.8 °F57 %30.46 in10.0 miNorth (350°)3.5 mphClear
6:35 PM45.5 °F32.0 °F59 %30.46 in10.0 miNNW (330°)3.5 mphClear
6:55 PM44.4 °F32.4 °F63 %30.47 in10.0 miNNW (340°)3.5 mphClear
7:15 PM43.7 °F32.4 °F64 %30.47 in10.0 miNNW (340°)3.5 mphClear
7:35 PM43.2 °F32.4 °F66 %30.47 in10.0 miNNW (340°)3.5 mphClear
7:55 PM42.3 °F32.4 °F68 %30.47 in10.0 miCalmClear
8:15 PM41.4 °F32.9 °F72 %30.47 in10.0 miNorth (350°)3.5 mphClear
8:35 PM40.1 °F33.3 °F77 %30.47 in10.0 miCalmClear
8:55 PM40.5 °F33.1 °F75 %30.46 in10.0 miCalmClear
9:15 PM40.5 °F32.9 °F74 %30.46 in10.0 miCalmClear
9:35 PM40.3 °F32.5 °F74 %30.46 in10.0 miCalmClear
9:55 PM37.9 °F33.6 °F84 %30.45 in10.0 miCalmClear
10:15 PM39.9 °F32.0 °F73 %30.44 in10.0 miCalmClear
10:35 PM38.8 °F32.0 °F76 %30.45 in10.0 miCalmClear
10:55 PM37.6 °F32.2 °F81 %30.45 in10.0 miCalmClear
11:15 PM37.6 °F32.0 °F80 %30.44 in10.0 miCalmClear
11:35 PM36.5 °F32.2 °F84 %30.44 in10.0 miCalmClear
11:55 PM36.5 °F33.3 °F88 %30.44 in10.0 miCalmClear
Hourly data recorded from KORG, located 12.09 miles away from Mauriceville, Texas







STORIES FROM OUR PARTNERS